TimeEST,TemperatureF,Dew PointF,Humidity,Sea Level PressureIn,VisibilityMPH,Wind Direction,Wind SpeedMPH,Gust SpeedMPH,PrecipitationIn,Events,Conditions,WindDirDegrees,DateUTC
12:51 AM,37.4,32.0,81,29.85,10.0,North,16.1,32.2,0.01,,Overcast,350,2013-03-07 05:51:00
12:54 AM,37.9,32.0,79,29.86,10.0,North,17.3,29.9,0.01,,Overcast,350,2013-03-07 05:54:00
1:54 AM,39.0,30.9,73,29.88,10.0,NNW,18.4,26.5,N/A,,Overcast,340,2013-03-07 06:54:00
2:30 AM,39.2,30.2,70,29.88,10.0,NNW,17.3,24.2,N/A,,Overcast,340,2013-03-07 07:30:00
2:54 AM,39.9,28.9,65,29.90,10.0,NNW,19.6,25.3,N/A,,Overcast,330,2013-03-07 07:54:00
3:54 AM,39.0,28.9,67,29.92,10.0,NNW,19.6,29.9,N/A,,Overcast,340,2013-03-07 08:54:00
4:54 AM,39.0,28.0,65,29.94,10.0,NNW,17.3,24.2,N/A,,Overcast,340,2013-03-07 09:54:00
5:54 AM,39.0,27.0,62,29.96,10.0,NNW,15.0,23.0,N/A,,Overcast,330,2013-03-07 10:54:00
6:54 AM,39.0,26.1,60,29.99,10.0,NNW,18.4,25.3,N/A,,Mostly Cloudy,330,2013-03-07 11:54:00
7:54 AM,41.0,27.0,57,30.01,10.0,NNW,17.3,23.0,N/A,,Scattered Clouds,340,2013-03-07 12:54:00
8:54 AM,43.0,27.0,53,30.02,10.0,North,16.1,27.6,N/A,,Clear,350,2013-03-07 13:54:00
9:54 AM,45.0,28.9,53,30.03,10.0,North,15.0,26.5,N/A,,Clear,350,2013-03-07 14:54:00
10:54 AM,46.0,28.9,51,30.04,10.0,NNW,18.4,26.5,N/A,,Partly Cloudy,330,2013-03-07 15:54:00
11:54 AM,46.0,28.9,51,30.05,10.0,WNW,19.6,28.8,N/A,,Overcast,300,2013-03-07 16:54:00
12:54 PM,46.9,30.0,52,30.04,10.0,NW,19.6,29.9,N/A,,Overcast,310,2013-03-07 17:54:00
1:54 PM,48.0,30.0,50,30.01,10.0,NW,24.2,28.8,N/A,,Mostly Cloudy,320,2013-03-07 18:54:00
2:54 PM,46.9,30.0,52,30.03,10.0,NNW,19.6,28.8,N/A,,Overcast,330,2013-03-07 19:54:00
3:54 PM,46.9,28.9,50,30.04,10.0,NW,20.7,26.5,N/A,,Overcast,320,2013-03-07 20:54:00
4:54 PM,46.9,28.9,50,30.04,10.0,NNW,11.5,20.7,N/A,,Overcast,340,2013-03-07 21:54:00
5:54 PM,46.0,28.0,50,30.06,10.0,North,9.2,-,N/A,,Overcast,350,2013-03-07 22:54:00
6:54 PM,45.0,28.9,53,30.08,10.0,North,6.9,-,N/A,,Overcast,10,2013-03-07 23:54:00
7:54 PM,45.0,28.9,53,30.09,10.0,Calm,Calm,-,N/A,,Overcast,0,2013-03-08 00:54:00
8:54 PM,46.0,27.0,47,30.09,10.0,NNW,10.4,-,N/A,,Overcast,330,2013-03-08 01:54:00
9:54 PM,44.1,25.0,47,30.08,10.0,NNW,12.7,-,N/A,,Overcast,330,2013-03-08 02:54:00
10:54 PM,42.1,26.1,53,30.08,10.0,NW,9.2,-,N/A,,Overcast,320,2013-03-08 03:54:00
11:54 PM,41.0,25.0,53,30.09,10.0,NW,8.1,-,N/A,,Partly Cloudy,310,2013-03-08 04:54:00